sat.trackr.live / text

‹ back to catalog

STARLINK-5990

NORAD 56448 · 2023-064A

PAYLOAD ACTIVE UNKNOWN

§ Identity

Operator
Country
US
Launch date
2023-05-10
Launch site
AFWTR
Launch vehicle
Mass (kg)
RCS (m²)

Purposes: comms

External: N2YO · Heavens-Above · Gunter

§ Orbital elements

Epoch: 2026-05-25T04:36:45.864000Z

Period
96.11 min
Inclination
69.9987°
Eccentricity
0.0003084
Mean motion
14.98318876 rev/d
Perigee alt
569.9 km
Apogee alt
574.2 km
Semi-major
6,950.2 km
B*
2.1335e-4
RAAN
311.6353°
Arg perigee
262.8546°
Mean anomaly
97.2263°
Rev number
16,670

§ Raw data

STARLINK-59901 56448U 23064A   26145.19219750  .00002453  00000+0  21335-3 0  99942 56448  69.9987 311.6353 0003084 262.8546  97.2263 14.98318876166701

JSON: /api/v1/satellites/56448 · /tle

For live sub-satellite position, see the globe view (requires WebGL).

§ Visibility from observer

Set your observer location to see the next 7 days of passes ≥ 10°. The values pass through the URL so the page stays shareable.

No JS? Fill the form by hand. The geolocation button needs JavaScript.